Location: Bouchavesnes-Bergen
(49.9859°N, 2.9203°E)
Time: 10:11:28
(UTC+00:00)

NOAA 16 DEB - Pass Details

Date: 02 October 2021
Orbit: 798 x 841 km, 98.8° (Epoch: 23 October)

Event Time Altitude Azimuth Distance (km) Brightness Sun altitude
Exits shadow 22:49:55 15° 346° (NNW) 2,032 ? -42.9°
Drops below altitude 10° 22:50:49 10° 346° (NNW) 2,385 ? -42.9°
Sets 22:53:09 0° 346° (NNW) 3,319 ? -43.0°
